When you browse on this site, cookies collect data to enhance your experience and personalize the content and advertising you see.
Visit our Privacy Policy to learn more. By continuing to use the site, you agree to this use of cookies and data.
  • In United Kingdom
  • List of Countries
  • For 7 days
  • Water Temperature
  • Satellite Maps
  • Weather Map
  • Weather Widgets
  • user-avatar
    Login

    Hourly Weather El Guna

    Today, 22 March, Friday

    Time Temperature Precipitation Wind Pressure Humidity
    00:00 +21°C° 0 mm 2 mps 733 mmHg 29%
    01:00 +21°C° 0 mm 2 mps 733 mmHg 30%
    02:00 +20°C° 0 mm 2 mps 733 mmHg 32%
    03:00 +20°C° 0 mm 2 mps 733 mmHg 32%
    04:00 +19°C° 0 mm 2 mps 733 mmHg 33%
    05:00 +19°C° 0 mm 2 mps 733 mmHg 34%
    06:00 +20°C° 0 mm 2 mps 734 mmHg 29%
    07:00 +21°C° 0 mm 2 mps 734 mmHg 25%
    08:00 +24°C° 0 mm 2 mps 734 mmHg 20%
    09:00 +25°C° 0 mm 3 mps 734 mmHg 17%
    10:00 +26°C° 0 mm 3 mps 734 mmHg 14%
    11:00 +28°C° 0 mm 4 mps 734 mmHg 11%
    12:00 +28°C° 0 mm 4 mps 734 mmHg 11%
    13:00 +29°C° 0 mm 4 mps 734 mmHg 11%
    14:00 +30°C° 0 mm 4 mps 733 mmHg 10%
    15:00 +29°C° 0 mm 4 mps 733 mmHg 11%
    16:00 +28°C° 0 mm 5 mps 733 mmHg 12%
    17:00 +28°C° 0 mm 5 mps 732 mmHg 12%
    18:00 +26°C° 0 mm 4 mps 732 mmHg 14%
    19:00 +25°C° 0 mm 3 mps 733 mmHg 16%
    20:00 +24°C° 0 mm 2 mps 733 mmHg 18%
    21:00 +23°C° 0 mm 2 mps 733 mmHg 19%
    22:00 +23°C° 0 mm 2 mps 733 mmHg 19%
    23:00 +21°C° 0 mm 2 mps 733 mmHg 19%

    Tomorrow, 23 March, Saturday

    Time Temperature Precipitation Wind Pressure Humidity
    00:00 +21°C° 0 mm 2 mps 733 mmHg 20%
    01:00 +21°C° 0 mm 2 mps 733 mmHg 20%
    02:00 +21°C° 0 mm 2 mps 732 mmHg 20%
    03:00 +21°C° 0 mm 1 mps 732 mmHg 21%
    04:00 +21°C° 0 mm 1 mps 732 mmHg 22%
    05:00 +20°C° 0 mm 1 mps 732 mmHg 23%
    06:00 +21°C° 0.1 mm 1 mps 732 mmHg 23%
    07:00 +22°C° 0.1 mm 1 mps 732 mmHg 22%
    08:00 +24°C° 0.1 mm 1 mps 732 mmHg 21%
    09:00 +25°C° 0 mm 2 mps 732 mmHg 20%
    10:00 +26°C° 0 mm 2 mps 732 mmHg 19%
    11:00 +27°C° 0 mm 3 mps 732 mmHg 17%
    12:00 +28°C° 0 mm 3 mps 731 mmHg 17%
    13:00 +28°C° 0 mm 3 mps 731 mmHg 17%
    14:00 +29°C° 0 mm 4 mps 730 mmHg 17%
    15:00 +28°C° 0 mm 4 mps 730 mmHg 19%
    16:00 +27°C° 0 mm 4 mps 730 mmHg 22%
    17:00 +26°C° 0 mm 4 mps 729 mmHg 25%
    18:00 +25°C° 0 mm 3 mps 729 mmHg 29%
    19:00 +24°C° 0 mm 3 mps 729 mmHg 32%
    20:00 +23°C° 0 mm 2 mps 728 mmHg 35%
    21:00 +21°C° 0 mm 2 mps 728 mmHg 37%
    22:00 +21°C° 0 mm 2 mps 728 mmHg 39%
    23:00 +20°C° 0 mm 2 mps 728 mmHg 40%

    Day after tomorrow, 24 March, Sunday

    Time Temperature Precipitation Wind Pressure Humidity
    00:00 +20°C° 0 mm 2 mps 727 mmHg 41%
    01:00 +21°C° 0 mm 1 mps 726 mmHg 42%
    02:00 +20°C° 0 mm 1 mps 726 mmHg 43%
    03:00 +20°C° 0 mm 1 mps 726 mmHg 43%
    04:00 +20°C° 0 mm 1 mps 725 mmHg 44%
    05:00 +20°C° 0 mm 1 mps 725 mmHg 44%
    06:00 +21°C° 0 mm 1 mps 725 mmHg 41%
    07:00 +22°C° 0 mm 1 mps 726 mmHg 39%
    08:00 +23°C° 0 mm 1 mps 726 mmHg 36%
    09:00 +24°C° 0 mm 2 mps 726 mmHg 32%
    10:00 +26°C° 0 mm 2 mps 726 mmHg 27%
    11:00 +27°C° 0 mm 3 mps 726 mmHg 23%
    12:00 +28°C° 0 mm 4 mps 726 mmHg 21%
    13:00 +30°C° 0 mm 5 mps 725 mmHg 19%
    14:00 +32°C° 0 mm 7 mps 725 mmHg 17%
    15:00 +31°C° 0 mm 8 mps 725 mmHg 18%
    16:00 +29°C° 0 mm 8 mps 725 mmHg 20%
    17:00 +28°C° 0 mm 9 mps 725 mmHg 21%
    18:00 +27°C° 0 mm 9 mps 726 mmHg 22%
    19:00 +24°C° 0 mm 8 mps 726 mmHg 23%
    20:00 +23°C° 0 mm 7 mps 727 mmHg 24%
    21:00 +22°C° 0 mm 6 mps 727 mmHg 25%
    22:00 +22°C° 0 mm 6 mps 727 mmHg 25%
    23:00 +21°C° 0 mm 6 mps 727 mmHg 26%

    25 March, Monday

    Time Temperature Precipitation Wind Pressure Humidity
    00:00 +20°C° 0 mm 5 mps 727 mmHg 29%
    01:00 +20°C° 0 mm 5 mps 727 mmHg 33%
    02:00 +19°C° 0 mm 4 mps 727 mmHg 37%
    03:00 +18°C° 0 mm 4 mps 727 mmHg 40%
    04:00 +18°C° 0 mm 4 mps 727 mmHg 42%
    05:00 +17°C° 0 mm 4 mps 727 mmHg 45%
    06:00 +16°C° 0 mm 5 mps 728 mmHg 41%
    07:00 +17°C° 0 mm 6 mps 728 mmHg 36%
    08:00 +17°C° 0 mm 6 mps 729 mmHg 32%
    09:00 +18°C° 0 mm 7 mps 729 mmHg 28%
    10:00 +20°C° 0 mm 7 mps 729 mmHg 24%
    11:00 +21°C° 0 mm 7 mps 729 mmHg 21%
    12:00 +21°C° 0 mm 7 mps 729 mmHg 21%
    13:00 +22°C° 0 mm 8 mps 729 mmHg 21%
    14:00 +22°C° 0 mm 9 mps 728 mmHg 21%
    15:00 +22°C° 0 mm 8 mps 728 mmHg 22%
    16:00 +21°C° 0 mm 8 mps 729 mmHg 22%
    17:00 +21°C° 0 mm 8 mps 729 mmHg 23%
    18:00 +20°C° 0 mm 7 mps 729 mmHg 26%
    19:00 +19°C° 0 mm 6 mps 730 mmHg 28%
    20:00 +17°C° 0 mm 5 mps 730 mmHg 31%
    21:00 +17°C° 0 mm 5 mps 731 mmHg 33%
    22:00 +17°C° 0 mm 4 mps 731 mmHg 35%
    23:00 +17°C° 0 mm 3 mps 731 mmHg 37%

    26 March, Tuesday

    Time Temperature Precipitation Wind Pressure Humidity
    00:00 +16°C° 0 mm 3 mps 731 mmHg 40%
    01:00 +16°C° 0 mm 3 mps 731 mmHg 43%
    02:00 +14°C° 0 mm 3 mps 731 mmHg 46%
    03:00 +15°C° 0 mm 2 mps 731 mmHg 49%
    04:00 +14°C° 0 mm 2 mps 732 mmHg 52%
    05:00 +14°C° 0 mm 2 mps 732 mmHg 55%
    06:00 +14°C° 0 mm 2 mps 732 mmHg 52%
    07:00 +15°C° 0 mm 2 mps 733 mmHg 49%
    08:00 +16°C° 0 mm 2 mps 733 mmHg 46%
    09:00 +17°C° 0 mm 2 mps 734 mmHg 39%
    10:00 +19°C° 0 mm 2 mps 734 mmHg 32%
    11:00 +20°C° 0 mm 2 mps 734 mmHg 25%
    12:00 +21°C° 0 mm 2 mps 734 mmHg 23%
    13:00 +22°C° 0 mm 3 mps 733 mmHg 20%
    14:00 +24°C° 0 mm 3 mps 733 mmHg 18%
    15:00 +22°C° 0 mm 3 mps 733 mmHg 21%
    16:00 +22°C° 0 mm 3 mps 733 mmHg 23%
    17:00 +22°C° 0 mm 3 mps 733 mmHg 25%
    18:00 +21°C° 0 mm 3 mps 734 mmHg 29%
    19:00 +20°C° 0 mm 2 mps 734 mmHg 33%
    20:00 +20°C° 0 mm 1 mps 735 mmHg 36%
    21:00 +19°C° 0 mm 1 mps 735 mmHg 37%
    22:00 +19°C° 0 mm 1 mps 735 mmHg 38%
    23:00 +19°C° 0 mm 1 mps 735 mmHg 39%

    27 March, Wednesday

    Time Temperature Precipitation Wind Pressure Humidity
    00:00 +18°C° 0 mm 1 mps 735 mmHg 40%
    01:00 +18°C° 0 mm 1 mps 734 mmHg 40%
    02:00 +16°C° 0 mm 1 mps 734 mmHg 41%
    03:00 +16°C° 0 mm 1 mps 734 mmHg 41%
    04:00 +16°C° 0 mm 1 mps 735 mmHg 42%
    05:00 +15°C° 0 mm 1 mps 735 mmHg 42%
    06:00 +16°C° 0 mm 1 mps 736 mmHg 39%
    07:00 +19°C° 0 mm 1 mps 736 mmHg 35%
    08:00 +20°C° 0 mm 1 mps 737 mmHg 32%
    09:00 +21°C° 0 mm 1 mps 737 mmHg 28%
    10:00 +22°C° 0 mm 1 mps 737 mmHg 24%
    11:00 +23°C° 0 mm 1 mps 736 mmHg 21%
    12:00 +24°C° 0 mm 2 mps 736 mmHg 19%
    13:00 +25°C° 0 mm 2 mps 736 mmHg 18%
    14:00 +26°C° 0 mm 3 mps 735 mmHg 16%
    15:00 +25°C° 0 mm 3 mps 735 mmHg 18%
    16:00 +25°C° 0 mm 3 mps 735 mmHg 19%
    17:00 +24°C° 0 mm 3 mps 735 mmHg 21%
    18:00 +23°C° 0 mm 2 mps 735 mmHg 24%
    19:00 +21°C° 0 mm 2 mps 735 mmHg 27%
    20:00 +21°C° 0 mm 1 mps 736 mmHg 30%
    21:00 +21°C° 0 mm 1 mps 735 mmHg 30%
    22:00 +20°C° 0 mm 1 mps 735 mmHg 30%
    23:00 +20°C° 0 mm 1 mps 735 mmHg 30%
    Show more